EJU742G LFMN-LFPO

Flight info

Callsign EJU742G
Flight time 1h 5m
Altitude 34000
Route BADOD DCT NEDRU DCT LTP DCT BULOL DCT IDAVO DCT ARDOL
Aircraft A320/M-SDE3FGHIRWY/LB1

Departure

Time 2026-05-06 16:29
Airport Nice-Côte d'Azur Airport (LFMN)

Arrival

Time 2026-05-06 17:35
Airport Paris-Orly Airport (LFPO)
Time Latitude Longitude Altitude Speed Heading
2026-05-06 15:51 43.66047 7.20706 26 ft 0 kts 291°
2026-05-06 16:18 43.66046 7.20710 22 ft 3 kts 290°
2026-05-06 16:18 43.66038 7.20744 22 ft 4 kts 282°
2026-05-06 16:19 43.66034 7.20781 22 ft 4 kts 262°
2026-05-06 16:19 43.66042 7.20808 23 ft 4 kts 197°
2026-05-06 16:19 43.66048 7.20810 25 ft 0 kts 170°
2026-05-06 16:21 43.66043 7.20811 24 ft 4 kts 170°
2026-05-06 16:21 43.65988 7.20824 23 ft 12 kts 171°
2026-05-06 16:22 43.65884 7.20847 25 ft 16 kts 171°
2026-05-06 16:22 43.65797 7.20917 22 ft 16 kts 88°
2026-05-06 16:22 43.65865 7.21025 22 ft 14 kts 45°
2026-05-06 16:22 43.65932 7.21117 22 ft 13 kts 44°
2026-05-06 16:23 43.65991 7.21199 22 ft 11 kts 45°
2026-05-06 16:23 43.66043 7.21271 22 ft 10 kts 45°
2026-05-06 16:23 43.66102 7.21351 22 ft 12 kts 45°
2026-05-06 16:23 43.66157 7.21427 22 ft 10 kts 45°
2026-05-06 16:24 43.66206 7.21495 22 ft 11 kts 45°
2026-05-06 16:24 43.66276 7.21591 22 ft 15 kts 44°
2026-05-06 16:24 43.66345 7.21686 22 ft 13 kts 45°
2026-05-06 16:24 43.66407 7.21771 22 ft 12 kts 44°
2026-05-06 16:25 43.66461 7.21845 23 ft 10 kts 44°
2026-05-06 16:25 43.66508 7.21909 22 ft 9 kts 45°
2026-05-06 16:25 43.66551 7.21971 22 ft 9 kts 53°
2026-05-06 16:25 43.66534 7.22056 22 ft 10 kts 135°
2026-05-06 16:26 43.66503 7.22100 22 ft 9 kts 135°
2026-05-06 16:26 43.66444 7.22180 23 ft 15 kts 136°
2026-05-06 16:26 43.66373 7.22296 22 ft 17 kts 108°
2026-05-06 16:26 43.66416 7.22423 22 ft 15 kts 45°
2026-05-06 16:27 43.66485 7.22517 22 ft 13 kts 45°
2026-05-06 16:27 43.66526 7.22574 22 ft 7 kts 45°
2026-05-06 16:27 43.66563 7.22624 22 ft 7 kts 45°
2026-05-06 16:27 43.66585 7.22685 22 ft 10 kts 92°
2026-05-06 16:28 43.66542 7.22767 23 ft 8 kts 138°
2026-05-06 16:28 43.66505 7.22767 23 ft 6 kts 225°
2026-05-06 16:28 43.66503 7.22765 25 ft 0 kts 225°
2026-05-06 16:29 43.66460 7.22705 23 ft 36 kts 225°
2026-05-06 16:29 43.66121 7.22240 27 ft 99 kts 225°
2026-05-06 16:29 43.65500 7.21390 45 ft 147 kts 224°
2026-05-06 16:29 43.64771 7.20395 635 ft 148 kts 225°
2026-05-06 16:30 43.64038 7.19387 1314 ft 149 kts 222°
2026-05-06 16:30 43.63552 7.18721 1777 ft 149 kts 225°
2026-05-06 16:30 43.62567 7.17369 2626 ft 150 kts 227°
2026-05-06 16:30 43.61824 7.16352 3197 ft 151 kts 228°
2026-05-06 16:31 43.60929 7.15416 3520 ft 178 kts 205°
2026-05-06 16:31 43.59597 7.15366 3772 ft 213 kts 166°
2026-05-06 16:31 43.58184 7.16354 4160 ft 234 kts 156°
2026-05-06 16:31 43.56757 7.17481 4889 ft 238 kts 158°
2026-05-06 16:32 43.55218 7.18126 5607 ft 233 kts 182°
2026-05-06 16:32 43.53649 7.17931 6394 ft 226 kts 198°
2026-05-06 16:32 43.52166 7.17220 7085 ft 222 kts 216°
2026-05-06 16:32 43.51134 7.15717 7859 ft 217 kts 245°
2026-05-06 16:33 43.50835 7.13683 8522 ft 223 kts 275°
2026-05-06 16:33 43.51203 7.11583 9263 ft 227 kts 283°
2026-05-06 16:33 43.51630 7.09485 10026 ft 228 kts 282°
2026-05-06 16:34 43.52736 7.05336 11416 ft 239 kts 302°
2026-05-06 16:34 43.53943 7.03663 11865 ft 261 kts 322°
2026-05-06 16:34 43.55627 7.02405 12102 ft 288 kts 327°
2026-05-06 16:34 43.57486 7.01090 12315 ft 311 kts 329°
2026-05-06 16:35 43.59483 6.99674 12498 ft 334 kts 328°
2026-05-06 16:35 43.61595 6.98178 12989 ft 346 kts 328°
2026-05-06 16:35 43.63753 6.96649 13702 ft 350 kts 329°
2026-05-06 16:35 43.65935 6.95097 14354 ft 354 kts 328°
2026-05-06 16:36 43.68129 6.93533 14986 ft 357 kts 328°
2026-05-06 16:36 43.70354 6.91942 15582 ft 361 kts 328°
2026-05-06 16:36 43.72594 6.90337 16229 ft 364 kts 327°
2026-05-06 16:36 43.74852 6.88718 16857 ft 368 kts 327°
2026-05-06 16:37 43.76928 6.87227 17432 ft 371 kts 327°
2026-05-06 16:37 43.79193 6.85596 18059 ft 374 kts 327°
2026-05-06 16:37 43.81513 6.83918 18608 ft 377 kts 327°
2026-05-06 16:37 43.83846 6.82226 19201 ft 379 kts 327°
2026-05-06 16:38 43.86190 6.80528 19719 ft 381 kts 326°
2026-05-06 16:38 43.88554 6.78817 20201 ft 386 kts 326°
2026-05-06 16:38 43.90946 6.77085 20705 ft 389 kts 325°
2026-05-06 16:38 43.93359 6.75336 21188 ft 394 kts 325°
2026-05-06 16:39 43.95797 6.73529 21668 ft 398 kts 323°
2026-05-06 16:39 43.98216 6.71636 22168 ft 401 kts 322°
2026-05-06 16:39 44.00631 6.69682 22703 ft 404 kts 321°
2026-05-06 16:39 44.03068 6.67683 23211 ft 408 kts 320°
2026-05-06 16:40 44.05522 6.65668 23682 ft 412 kts 320°
2026-05-06 16:40 44.08008 6.63641 24101 ft 415 kts 320°
2026-05-06 16:40 44.10511 6.61618 24508 ft 418 kts 321°
2026-05-06 16:40 44.13040 6.59585 24945 ft 421 kts 321°
2026-05-06 16:41 44.15556 6.57566 25312 ft 424 kts 321°
2026-05-06 16:41 44.18117 6.55507 25676 ft 427 kts 321°
2026-05-06 16:41 44.20692 6.53429 26071 ft 429 kts 321°
2026-05-06 16:41 44.23279 6.51333 26444 ft 432 kts 321°
2026-05-06 16:42 44.25887 6.49216 26875 ft 434 kts 321°
2026-05-06 16:42 44.28503 6.47092 27262 ft 436 kts 321°
2026-05-06 16:42 44.31132 6.44957 27701 ft 438 kts 321°
2026-05-06 16:42 44.33777 6.42811 28101 ft 440 kts 321°
2026-05-06 16:43 44.36430 6.40654 28465 ft 443 kts 321°
2026-05-06 16:43 44.39101 6.38477 28824 ft 446 kts 321°
2026-05-06 16:43 44.41792 6.36286 29161 ft 449 kts 321°
2026-05-06 16:43 44.44498 6.34082 29504 ft 451 kts 321°
2026-05-06 16:44 44.47215 6.31865 29751 ft 454 kts 321°
2026-05-06 16:44 44.49953 6.29629 30019 ft 457 kts 321°
2026-05-06 16:44 44.52704 6.27380 30236 ft 459 kts 321°
2026-05-06 16:44 44.55460 6.25121 30468 ft 460 kts 321°
2026-05-06 16:45 44.58233 6.22847 30704 ft 462 kts 321°
2026-05-06 16:45 44.61013 6.20566 30935 ft 463 kts 321°
2026-05-06 16:45 44.63800 6.18276 31168 ft 464 kts 321°
2026-05-06 16:45 44.66583 6.15988 31482 ft 463 kts 322°
2026-05-06 16:46 44.69364 6.13696 31814 ft 463 kts 322°
2026-05-06 16:46 44.72134 6.11406 32160 ft 462 kts 322°
2026-05-06 16:46 44.74868 6.09145 32490 ft 461 kts 322°
2026-05-06 16:46 44.77631 6.06859 32819 ft 460 kts 322°
2026-05-06 16:47 44.80381 6.04583 33149 ft 459 kts 322°
2026-05-06 16:47 44.83132 6.02305 33522 ft 458 kts 322°
2026-05-06 16:47 44.85873 6.00034 33850 ft 457 kts 323°
2026-05-06 16:48 44.91305 5.95532 33919 ft 449 kts 322°
2026-05-06 16:48 44.96665 5.91053 33918 ft 447 kts 322°
2026-05-06 16:49 45.01786 5.86771 33911 ft 446 kts 322°
2026-05-06 16:49 45.07135 5.82291 33912 ft 447 kts 323°
2026-05-06 16:50 45.12418 5.77666 33916 ft 446 kts 320°
2026-05-06 16:50 45.17596 5.72845 33929 ft 445 kts 320°
2026-05-06 16:51 45.22738 5.68047 33927 ft 445 kts 320°
2026-05-06 16:51 45.27930 5.63263 33925 ft 446 kts 321°
2026-05-06 16:52 45.33153 5.58476 33916 ft 446 kts 321°
2026-05-06 16:52 45.38365 5.53680 33910 ft 446 kts 321°
2026-05-06 16:53 45.43571 5.48856 33912 ft 447 kts 321°
2026-05-06 16:53 45.48824 5.44075 33946 ft 450 kts 327°
2026-05-06 16:54 45.54317 5.40542 33945 ft 452 kts 332°
2026-05-06 16:54 45.60050 5.37019 33939 ft 450 kts 332°
2026-05-06 16:55 45.65793 5.33457 33937 ft 450 kts 332°
2026-05-06 16:55 45.71538 5.29885 33930 ft 450 kts 332°
2026-05-06 16:56 45.77276 5.26322 33919 ft 449 kts 332°
2026-05-06 16:56 45.83012 5.22736 33918 ft 449 kts 332°
2026-05-06 16:57 45.88738 5.19149 33916 ft 449 kts 332°
2026-05-06 16:57 45.94470 5.15551 33917 ft 449 kts 332°
2026-05-06 16:58 46.00209 5.11949 33931 ft 449 kts 333°
2026-05-06 16:58 46.05893 5.08368 33935 ft 449 kts 333°
2026-05-06 16:59 46.11614 5.04742 33932 ft 449 kts 333°
2026-05-06 16:59 46.17323 5.01099 33925 ft 448 kts 333°
2026-05-06 17:00 46.23019 4.97455 33927 ft 448 kts 333°
2026-05-06 17:00 46.28717 4.93803 33930 ft 447 kts 333°
2026-05-06 17:01 46.34411 4.90154 33918 ft 448 kts 333°
2026-05-06 17:01 46.40112 4.86496 33915 ft 448 kts 333°
2026-05-06 17:02 46.45807 4.82814 33924 ft 448 kts 333°
2026-05-06 17:02 46.51500 4.79120 33929 ft 448 kts 334°
2026-05-06 17:03 46.57190 4.75432 33929 ft 448 kts 334°
2026-05-06 17:03 46.62844 4.71765 33925 ft 447 kts 334°
2026-05-06 17:04 46.68532 4.68072 33920 ft 447 kts 334°
2026-05-06 17:04 46.74213 4.64361 33917 ft 447 kts 334°
2026-05-06 17:05 46.79893 4.60665 33914 ft 447 kts 334°
2026-05-06 17:05 46.85580 4.56999 33913 ft 447 kts 334°
2026-05-06 17:06 46.91242 4.53343 33810 ft 450 kts 333°
2026-05-06 17:06 46.94118 4.51476 33926 ft 456 kts 333°
2026-05-06 17:06 46.97031 4.49580 33930 ft 460 kts 334°
2026-05-06 17:07 47.02907 4.45747 33917 ft 463 kts 334°
2026-05-06 17:07 47.08791 4.41901 33915 ft 463 kts 334°
2026-05-06 17:08 47.14667 4.38050 33834 ft 464 kts 334°
2026-05-06 17:08 47.17608 4.36122 33545 ft 463 kts 334°
2026-05-06 17:08 47.20540 4.34199 32983 ft 459 kts 334°
2026-05-06 17:08 47.23445 4.32292 32398 ft 456 kts 334°
2026-05-06 17:09 47.26331 4.30395 31817 ft 453 kts 335°
2026-05-06 17:09 47.29203 4.28503 31234 ft 451 kts 335°
2026-05-06 17:09 47.31828 4.26773 30705 ft 449 kts 335°
2026-05-06 17:09 47.34671 4.24897 30154 ft 446 kts 335°
2026-05-06 17:10 47.37497 4.23027 29546 ft 445 kts 335°
2026-05-06 17:10 47.40309 4.21163 28991 ft 441 kts 335°
2026-05-06 17:10 47.43101 4.19309 28440 ft 438 kts 335°
2026-05-06 17:10 47.45870 4.17470 27907 ft 435 kts 335°
2026-05-06 17:11 47.48612 4.15648 27577 ft 431 kts 336°
2026-05-06 17:11 47.51320 4.13847 27192 ft 422 kts 337°
2026-05-06 17:11 47.53934 4.12105 26582 ft 410 kts 336°
2026-05-06 17:11 47.56276 4.10541 26228 ft 397 kts 337°
2026-05-06 17:12 47.58776 4.08872 25828 ft 393 kts 337°
2026-05-06 17:12 47.61257 4.07219 25427 ft 389 kts 336°
2026-05-06 17:12 47.63706 4.05584 25034 ft 384 kts 336°
2026-05-06 17:12 47.66124 4.03965 24642 ft 379 kts 336°
2026-05-06 17:13 47.68522 4.02358 24258 ft 375 kts 336°
2026-05-06 17:13 47.70890 4.00766 23872 ft 372 kts 336°
2026-05-06 17:13 47.73236 3.99189 23491 ft 370 kts 336°
2026-05-06 17:13 47.75574 3.97618 23073 ft 367 kts 336°
2026-05-06 17:14 47.77839 3.95895 22701 ft 365 kts 327°
2026-05-06 17:14 47.79836 3.93605 22329 ft 362 kts 316°
2026-05-06 17:14 47.81492 3.90808 21960 ft 359 kts 306°
2026-05-06 17:14 47.82855 3.87759 21596 ft 358 kts 304°
2026-05-06 17:15 47.84126 3.84887 21257 ft 357 kts 304°
2026-05-06 17:15 47.85493 3.81812 20891 ft 355 kts 304°
2026-05-06 17:15 47.86849 3.78763 20530 ft 353 kts 304°
2026-05-06 17:15 47.88199 3.75732 20170 ft 350 kts 304°
2026-05-06 17:16 47.89541 3.72722 19818 ft 347 kts 304°
2026-05-06 17:16 47.90875 3.69723 19458 ft 345 kts 304°
2026-05-06 17:16 47.92194 3.66747 19105 ft 344 kts 304°
2026-05-06 17:16 47.93064 3.64782 18873 ft 342 kts 304°
2026-05-06 17:17 47.94373 3.61826 18523 ft 341 kts 304°
2026-05-06 17:17 47.95676 3.58886 18169 ft 339 kts 304°
2026-05-06 17:17 47.97072 3.56075 17796 ft 336 kts 313°
2026-05-06 17:17 47.98697 3.53578 17310 ft 335 kts 315°
2026-05-06 17:18 48.00328 3.51109 16857 ft 333 kts 314°
2026-05-06 17:18 48.01947 3.48646 16415 ft 331 kts 314°
2026-05-06 17:18 48.03555 3.46188 15978 ft 330 kts 314°
2026-05-06 17:18 48.05146 3.43759 15535 ft 325 kts 314°
2026-05-06 17:19 48.06728 3.41345 15111 ft 325 kts 314°
2026-05-06 17:19 48.08313 3.38925 14668 ft 325 kts 314°
2026-05-06 17:19 48.09892 3.36507 14275 ft 324 kts 313°
2026-05-06 17:19 48.11456 3.34102 13837 ft 321 kts 313°
2026-05-06 17:20 48.12998 3.31730 13344 ft 317 kts 313°
2026-05-06 17:20 48.14532 3.29371 12914 ft 316 kts 313°
2026-05-06 17:20 48.16058 3.27022 12493 ft 314 kts 313°
2026-05-06 17:20 48.17577 3.24686 12082 ft 312 kts 313°
2026-05-06 17:21 48.19066 3.22396 11934 ft 301 kts 313°
2026-05-06 17:21 48.20503 3.20179 11736 ft 294 kts 313°
2026-05-06 17:21 48.21918 3.17998 11512 ft 289 kts 314°
2026-05-06 17:21 48.23299 3.15876 11242 ft 287 kts 314°
2026-05-06 17:22 48.24708 3.13711 10944 ft 285 kts 314°
2026-05-06 17:22 48.26089 3.11583 10652 ft 284 kts 314°
2026-05-06 17:22 48.27445 3.09489 10359 ft 282 kts 314°
2026-05-06 17:22 48.28809 3.07377 10070 ft 281 kts 314°
2026-05-06 17:23 48.30163 3.05278 9859 ft 281 kts 314°
2026-05-06 17:23 48.31517 3.03179 9587 ft 278 kts 314°
2026-05-06 17:23 48.32864 3.01093 9364 ft 278 kts 314°
2026-05-06 17:23 48.34207 2.99019 9146 ft 277 kts 314°
2026-05-06 17:24 48.35585 2.97007 8934 ft 276 kts 323°
2026-05-06 17:24 48.37281 2.95739 8612 ft 273 kts 344°
2026-05-06 17:24 48.39130 2.95076 8215 ft 273 kts 346°
2026-05-06 17:24 48.40972 2.94435 7827 ft 271 kts 347°
2026-05-06 17:25 48.42797 2.93797 7530 ft 267 kts 346°
2026-05-06 17:25 48.44424 2.93227 7147 ft 267 kts 346°
2026-05-06 17:25 48.46224 2.92593 6749 ft 265 kts 346°
2026-05-06 17:25 48.48018 2.91960 6348 ft 264 kts 346°
2026-05-06 17:26 48.49804 2.91330 5922 ft 263 kts 346°
2026-05-06 17:26 48.51576 2.90705 5516 ft 261 kts 346°
2026-05-06 17:26 48.53332 2.90084 5123 ft 258 kts 346°
2026-05-06 17:26 48.55076 2.89465 4704 ft 257 kts 346°
2026-05-06 17:27 48.56728 2.88501 4288 ft 254 kts 330°
2026-05-06 17:27 48.58232 2.87119 3860 ft 252 kts 327°
2026-05-06 17:27 48.59704 2.85697 3438 ft 251 kts 327°
2026-05-06 17:27 48.61167 2.84278 3045 ft 249 kts 327°
2026-05-06 17:28 48.62614 2.82874 2977 ft 247 kts 327°
2026-05-06 17:28 48.64061 2.81461 2978 ft 249 kts 327°
2026-05-06 17:28 48.65514 2.80037 2980 ft 248 kts 327°
2026-05-06 17:28 48.66835 2.78730 2981 ft 248 kts 327°
2026-05-06 17:29 48.68285 2.77293 2979 ft 249 kts 327°
2026-05-06 17:29 48.69714 2.75867 2977 ft 240 kts 327°
2026-05-06 17:29 48.71058 2.74521 2977 ft 224 kts 326°
2026-05-06 17:29 48.72082 2.72902 2979 ft 212 kts 303°
2026-05-06 17:30 48.72775 2.70934 2979 ft 211 kts 298°
2026-05-06 17:30 48.73409 2.68924 2981 ft 211 kts 297°
2026-05-06 17:30 48.74035 2.66915 2981 ft 211 kts 297°
2026-05-06 17:30 48.74670 2.64913 2974 ft 211 kts 297°
2026-05-06 17:31 48.75293 2.62914 2981 ft 205 kts 297°
2026-05-06 17:31 48.75873 2.61003 2967 ft 195 kts 293°
2026-05-06 17:31 48.76103 2.59015 2898 ft 193 kts 270°
2026-05-06 17:31 48.75828 2.57049 2708 ft 189 kts 258°
2026-05-06 17:32 48.75478 2.55146 2447 ft 186 kts 259°
2026-05-06 17:32 48.75135 2.53273 2196 ft 181 kts 259°
2026-05-06 17:32 48.74807 2.51488 1952 ft 172 kts 258°
2026-05-06 17:32 48.74500 2.49814 1739 ft 157 kts 260°
2026-05-06 17:33 48.74221 2.48290 1509 ft 144 kts 258°
2026-05-06 17:33 48.73976 2.46948 1323 ft 141 kts 258°
2026-05-06 17:33 48.73717 2.45533 1123 ft 138 kts 258°
2026-05-06 17:33 48.73463 2.44137 927 ft 139 kts 258°
2026-05-06 17:34 48.73206 2.42734 755 ft 138 kts 258°
2026-05-06 17:34 48.72951 2.41362 560 ft 133 kts 260°
2026-05-06 17:34 48.72703 2.40009 388 ft 134 kts 259°
2026-05-06 17:34 48.72464 2.38694 303 ft 116 kts 255°
2026-05-06 17:35 48.72296 2.37780 302 ft 65 kts 254°
2026-05-06 17:35 48.72212 2.37327 302 ft 35 kts 255°
2026-05-06 17:35 48.72169 2.37011 300 ft 28 kts 272°
2026-05-06 17:36 48.72200 2.36531 304 ft 22 kts 291°
2026-05-06 17:36 48.72263 2.36362 305 ft 19 kts 309°
2026-05-06 17:36 48.72370 2.36270 303 ft 15 kts 343°
2026-05-06 17:36 48.72406 2.36139 301 ft 17 kts 254°
2026-05-06 17:37 48.72373 2.35964 304 ft 19 kts 255°
2026-05-06 17:37 48.72337 2.35766 303 ft 20 kts 254°
2026-05-06 17:37 48.72371 2.35636 301 ft 16 kts 343°
2026-05-06 17:37 48.72483 2.35588 301 ft 17 kts 344°
2026-05-06 17:38 48.72601 2.35539 301 ft 15 kts 344°
2026-05-06 17:38 48.72698 2.35498 303 ft 16 kts 344°
2026-05-06 17:38 48.72782 2.35579 300 ft 16 kts 20°
2026-05-06 17:38 48.72875 2.35550 302 ft 12 kts 344°
2026-05-06 17:39 48.72948 2.35532 302 ft 9 kts 31°
2026-05-06 17:39 48.72945 2.35621 303 ft 9 kts 104°
2026-05-06 17:39 48.72937 2.35669 301 ft 2 kts 104°
2026-05-06 17:39 48.72934 2.35684 306 ft 1 kts 104°
2026-05-06 17:40 48.72934 2.35687 306 ft 0 kts 104°